Regional Weather Roundup
Issued by NWS

Home | Current Version | Previous Version | Text Only | Print | Product List | Glossary On
Versions: 1 2 3 4 5 6 7 8 9 10 11 12 13 14 15 16 17 18 19 20 21 22 23 24 25 26 27 28 29 30 31 32 33 34 35 36 37 38 39 40 41 42 43 44 45 46 47 48 49 50
000
ASUS43 KDTX 010610
RWRMI
MICHIGAN HOURLY REGIONAL WEATHER ROUNDUP
NATIONAL WEATHER SERVICE DETROIT/PONTIAC MI
200 AM EDT WED OCT 01 2014

NOTE: "FAIR" INDICATES FEW OR NO CLOUDS BELOW 12,000 FEET WITH NO
SIGNIFICANT WEATHER AND/OR OBSTRUCTION TO VISIBILITY.

MIZ047>049-052>055-059>063-066>070-074>076-081>083-010700-
SOUTHEAST LOWER MICHIGAN

CITY           SKY/WX    TMP DP  RH WIND       PRES   REMARKS
ADRIAN         CLEAR     50  47  89 N5        30.04S
6HR MIN TEMP:  49; 6HR MAX TEMP:  54;

ALMA           CLOUDY    51  49  95 CALM      30.07R FOG
ANN ARBOR      CLOUDY    52  48  86 N6        30.04R
BAD AXE        DRIZZLE   56  56 100 NE7       30.04S
6HR MIN TEMP:  53; 6HR MAX TEMP:  56;

DETROIT CITY     N/A    N/A N/A N/A MISG        N/A
DETROIT        CLOUDY    53  49  86 W3        30.03F
6HR MIN TEMP:  53; 6HR MAX TEMP:  54; 6HR PCP: TRACE;

FLINT          CLOUDY    54  51  90 NW5       30.05S FOG
6HR MIN TEMP:  53; 6HR MAX TEMP:  54;

GROSSE ILE     CLOUDY    54  50  87 NW6       30.01F
HILLSDALE      CLOUDY    51  51  99 CALM      30.04S
6HR MIN TEMP:  51; 6HR MAX TEMP:  55;

HOWELL         CLOUDY    51  50  97 CALM      30.04S FOG

CITY           SKY/WX    TMP DP  RH WIND       PRES   REMARKS
JACKSON        CLOUDY    50  49  96 CALM      30.04S
6HR MIN TEMP:  50; 6HR MAX TEMP:  53;

LAMBERTVILLE   CLEAR     46  45  93 CALM      30.04R
LANSING        CLOUDY    51  48  89 N3        30.06S
6HR MIN TEMP:  50; 6HR MAX TEMP:  53;

LAPEER         NOT AVBL
MASON          CLOUDY    50  49  95 N3        30.05S FOG
MONROE         CLEAR     46  45  93 CALM      30.02R
MT. CLEMENS    CLOUDY    53  53  99 W2        30.01S
6HR MIN TEMP:  52; 6HR MAX TEMP:  53;

PONTIAC        CLOUDY    52  50  93 W7        30.03S FOG
6HR MIN TEMP:  51; 6HR MAX TEMP:  52;

PORT HOPE        N/A     58  56  93 NE12      30.02S
6HR MIN TEMP:  56; 6HR MAX TEMP:  58;

PORT HURON     FOG       54  54 100 CALM      30.02R VSB 1/4
TRI CITIES     CLOUDY    52  50  93 N8        30.06F
6HR MIN TEMP:  52; 6HR MAX TEMP:  54;

YPSILANTI      CLOUDY    56  50  80 NW6       30.04S
6HR MIN TEMP:  55; 6HR MAX TEMP:  57;

$$
MIZ043>046-050>051-056>058-064>065-071>073-077>080-010700-
SOUTHWEST LOWER MICHIGAN

CITY           SKY/WX    TMP DP  RH WIND       PRES   REMARKS
BATTLE CREEK   CLOUDY    52  46  80 VRB3      30.05R
6HR MIN TEMP:  52; 6HR MAX TEMP:  56;

BIG RAPIDS     CLOUDY    51  51 100 SE6       30.06S
6HR MIN TEMP:  51; 6HR MAX TEMP:  52;

COLDWATER      CLOUDY    54  50  87 E7        30.04S
6HR MIN TEMP:  54; 6HR MAX TEMP:  56;

HOLLAND        CLOUDY    55  49  80 E5        30.06R
6HR MIN TEMP:  54; 6HR MAX TEMP:  56;

GRAND RAPIDS   CLOUDY    53  50  89 CALM      30.05F
6HR MIN TEMP:  53; 6HR MAX TEMP:  55;

KALAMAZOO      CLOUDY    53  49  86 CALM      30.05R
6HR MIN TEMP:  53; 6HR MAX TEMP:  55;

MARSHALL       CLOUDY    50  47  90 CALM      30.04F
MUSKEGON       CLOUDY    54  48  80 NE5       30.06S
6HR MIN TEMP:  54; 6HR MAX TEMP:  55;

$$
MIZ016>042-010700-
NORTHERN LOWER MICHIGAN

CITY           SKY/WX    TMP DP  RH WIND       PRES   REMARKS
ALPENA         CLOUDY    53  51  93 E5        30.07S
6HR MIN TEMP:  50; 6HR MAX TEMP:  53;

BEAVER ISLAND  CLOUDY    55  50  85 SE3       30.07S
6HR MIN TEMP:  53; 6HR MAX TEMP:  55;

BELLAIRE       CLOUDY    51  49  92 CALM      30.07S
CADILLAC       CLOUDY    48  48 100 E3        30.05F
CHARLEVOIX     CLOUDY    52  50  93 CALM      30.09F
6HR MIN TEMP:  51; 6HR MAX TEMP:  53;

FRANKFORT      CLOUDY    52  48  88 CALM      30.07R FOG
GAYLORD        CLOUDY    50  49  96 VRB5      30.07S FOG
6HR MIN TEMP:  47; 6HR MAX TEMP:  50;

GRAYLING       CLOUDY    49  49 100 CALM      30.08S FOG
6HR MIN TEMP:  49; 6HR MAX TEMP:  49;

HARBOR SPRINGS CLOUDY    52  48  86 CALM      30.08R
HOUGHTON LAKE  CLOUDY    49  48  97 CALM      30.07S FOG
6HR MIN TEMP:  48; 6HR MAX TEMP:  50;

OSCODA         CLOUDY    54  54 100 E12       30.04F
PELLSTON       CLOUDY    51  49  92 CALM      30.08R
6HR MIN TEMP:  48; 6HR MAX TEMP:  52;

TRAVERSE CITY  CLOUDY    52  47  83 CALM      30.06S
6HR MIN TEMP:  52; 6HR MAX TEMP:  53;

$$
MIZ007>008-015-010700-
EASTERN UPPER MICHIGAN

CITY           SKY/WX    TMP DP  RH WIND       PRES   REMARKS
MACKINAC ISLAN CLOUDY    55  52  91 SE5       30.07S
6HR MIN TEMP:  51; 6HR MAX TEMP:  55;

NEWBERRY       CLOUDY    49  47  91 SW7       30.07S
S. S. MARIE    PTCLDY    51  46  83 E3        30.06R
6HR MIN TEMP:  51; 6HR MAX TEMP:  54;

$$
MIZ004>006-011>014-085-010700-
CENTRAL UPPER MICHIGAN

CITY           SKY/WX    TMP DP  RH WIND       PRES   REMARKS
MANISTIQUE     CLOUDY    55  50  85 SE6       30.06S
SAWYER-GWINN   CLOUDY    45  43  94 S3        30.05S
$$
MIZ001>003-009>011-084-010700-
WESTERN UPPER MICHIGAN

CITY           SKY/WX    TMP DP  RH WIND       PRES   REMARKS
IRON MOUNTAIN  CLOUDY    47  45  93 SE5       30.04S FOG
6HR MIN TEMP:  44; 6HR MAX TEMP:  51;

HOUGHTON       CLOUDY    43  41  93 SE6       30.01F
6HR MIN TEMP:  42; 6HR MAX TEMP:  45;

COPPER HARBOR    N/A     50  45  83 SW6       30.03F
6HR MIN TEMP:  42; 6HR MAX TEMP:  50;

$$

ABBREVIATIONS USED IN REMARKS
   TC - TEMPERATURE IN CELSIUS
  WCI - WIND CHILL INDEX
   HX - HEAT INDEX
  VSB - VISIBILITY




USA.gov is the U.S. government's official web portal to all federal, state and local government web resources and services.